Change the Weather History Date:

Thursday, March 20, 2014

  Actual Average Record
Temperature  
Mean Temperature 59 °F -  
Max Temperature 76 °F 62 °F 86 °F (2005)
Min Temperature 42 °F 45 °F 35 °F (2003)
Degree Days  
Heating Degree Days 6    
Growing Degree Days 9 (Base 50)    
Moisture  
Dew Point 48 °F    
Average Humidity 66    
Maximum Humidity 94    
Minimum Humidity 30    
Precipitation  
Precipitation 0.00 in - - ()
Sea Level Pressure  
Sea Level Pressure 30.04 in    
Wind  
Wind Speed 4 mph ()    
Max Wind Speed 12 mph    
Max Gust Speed -    
Visibility 8.6 miles    
Events Rain    
Averages and records for this station are not official NWS values.
T = Trace of Precipitation, MM = Missing Value Source: Averaged Metar Reports

Daily Weather History Graph

Daily Weather History Graph

Search for Another Location

Airport or City:

Trip Planner

Search our weather history database for the weather conditions in past years. The results will help you decide how hot, cold, wet, or windy it might be!

Date:

Astronomy

Mar. 20, 2014 Rise Set
Actual Time 7:15 AM CET 7:23 PM CET
Civil Twilight 6:46 AM CET 7:52 PM CET
Nautical Twilight 6:13 AM CET 8:25 PM CET
Astronomical Twilight 5:39 AM CET 8:59 PM CET
Moon 11:35 PM CET (3/20) 9:05 AM CET (3/20)
Length of Visible Light 13h 05m
Length of Day
12h 08m
Waning Gibbous, 86% of the Moon is Illuminated
Mar 20
Waning Gibbous
Mar 24
Last Quarter
Mar 30
New
Apr 7
First Quarter
Apr 15
Full

Hourly Weather History & Observations

Time (CET) Temp. Windchill Dew Point Humidity Pressure Visibility Wind Dir Wind Speed Gust Speed Precip Events Conditions
5:00 AM 44.6 °F - 42.8 °F 93% 30.06 in - Variable 2.3 mph - N/A   Clear
5:30 AM 44.6 °F 43.1 °F 42.8 °F 93% 30.04 in - ESE 3.5 mph - N/A   Clear
6:00 AM 44.6 °F 41.4 °F 42.8 °F 93% 30.04 in - ESE 5.8 mph - N/A   Clear
6:30 AM 44.6 °F 41.4 °F 42.8 °F 93% 30.04 in - East 5.8 mph - N/A   Clear
7:00 AM 43 °F - 42 °F 93% 30.06 in 12 mi ESE 4.6 mph - -  
7:00 AM 44.6 °F 43.1 °F 42.8 °F 93% 30.04 in - ESE 3.5 mph - N/A   Clear
7:30 AM 44.6 °F 42.2 °F 42.8 °F 93% 30.04 in - ESE 4.6 mph - N/A   Clear
8:00 AM 46.4 °F 43.5 °F 42.8 °F 87% 30.04 in - East 5.8 mph - N/A   Clear
8:30 AM 48.2 °F - 44.6 °F 87% 30.04 in - East 3.5 mph - N/A   Clear
9:00 AM 51.8 °F - 44.6 °F 76% 30.04 in - Variable 2.3 mph - N/A   Clear
9:30 AM 55.4 °F - 46.4 °F 72% 30.04 in - Variable 1.2 mph - N/A   Clear
10:00 AM 61 °F - 49 °F 55% 30.06 in 16 mi ESE 2.3 mph - -  
10:00 AM 59.0 °F - 50.0 °F 72% 30.04 in - Variable 1.2 mph - N/A   Clear
10:30 AM 62.6 °F - 48.2 °F 59% 30.04 in - Calm Calm - N/A   Clear
11:00 AM 68.0 °F - 48.2 °F 49% 30.04 in - Calm Calm - N/A   Clear
11:30 AM 69.8 °F - 46.4 °F 43% 30.04 in - Variable 1.2 mph - N/A   Clear
12:00 PM 71.6 °F - 46.4 °F 41% 30.04 in - Variable 1.2 mph - N/A   Clear
12:30 PM 73.4 °F - 44.6 °F 36% 30.04 in - Variable 1.2 mph - N/A   Clear
1:00 PM 76 °F - 53 °F 33% 30.04 in 19 mi NW 6.9 mph - -  
1:00 PM 73.4 °F - 53.6 °F 50% 30.04 in - Variable 2.3 mph - N/A   Clear
1:30 PM 73.4 °F - 48.2 °F 41% 30.04 in - WNW 9.2 mph - N/A   Clear
2:00 PM 73.4 °F - 46.4 °F 38% 30.04 in - WNW 8.1 mph - N/A   Clear
2:30 PM 73.4 °F - 41.0 °F 31% 30.04 in - NW 8.1 mph - N/A   Clear
3:00 PM 73.4 °F - 42.8 °F 33% 30.04 in - WNW 5.8 mph - N/A   Clear
3:30 PM 73.4 °F - 46.4 °F 38% 30.01 in - WNW 9.2 mph - N/A   Clear
4:00 PM 72 °F - 47 °F 30% 30.02 in 16 mi WNW 11.5 mph - -  
4:00 PM 71.6 °F - 46.4 °F 41% 30.01 in - NW 10.4 mph - N/A   Clear
4:30 PM 69.8 °F - 48.2 °F 46% 30.01 in - WNW 10.4 mph - N/A   Clear
5:00 PM 66.2 °F - 48.2 °F 52% 30.01 in - WNW 11.5 mph - N/A   Clear
5:30 PM 66.2 °F - 50.0 °F 56% 30.01 in 6.2 mi WNW 6.9 mph - N/A   Partly Cloudy
6:00 PM 64.4 °F - 48.2 °F 56% 30.01 in 6.2 mi WNW 6.9 mph - N/A   Partly Cloudy
6:30 PM 62.6 °F - 50.0 °F 63% 30.01 in 6.2 mi NW 6.9 mph - N/A   Partly Cloudy
7:00 PM 63 °F - 49 °F 50% 30.03 in 12 mi West 3.5 mph - -   Scattered Clouds
7:00 PM 62.6 °F - 50.0 °F 63% 30.01 in 6.2 mi Variable 2.3 mph - N/A   Partly Cloudy
7:30 PM 60.8 °F - 50.0 °F 68% 30.04 in 6.2 mi WNW 8.1 mph - N/A   Partly Cloudy
8:00 PM 57.2 °F - 50.0 °F 77% 30.06 in 6.2 mi WNW 6.9 mph - N/A   Partly Cloudy
8:30 PM 57.2 °F - 51.8 °F 82% 30.06 in 6.2 mi WNW 5.8 mph - N/A   Partly Cloudy
9:00 PM 55.4 °F - 51.8 °F 88% 30.06 in 6.2 mi WNW 3.5 mph - N/A   Partly Cloudy
9:30 PM 55.4 °F - 53.6 °F 94% 30.06 in 6.2 mi Variable 1.2 mph - N/A   Partly Cloudy
10:00 PM 55.4 °F - 53.6 °F 94% 30.09 in 6.2 mi Variable 1.2 mph - N/A Rain Light Rain
10:30 PM 55.4 °F - 53.6 °F 94% 30.06 in 6.2 mi Variable 2.3 mph - N/A   Partly Cloudy
11:00 PM 55.4 °F - 53.6 °F 94% 30.06 in 6.2 mi Variable 2.3 mph - N/A   Partly Cloudy
11:30 PM 55.4 °F - 51.8 °F 88% 30.06 in 6.2 mi Calm Calm - N/A   Partly Cloudy